533  
SXUS52 KJAX 170010  
OSOJAX  
OTHER SURFACE OBSERVATIONS  
NATIONAL WEATHER SERVICE JACKSONVILLE FL  
700 PM EST WED JAN 16 2019  
 
FLZ020>025-030>033-035>038-040-170100-   
..FLORIDA
 
 
 
CITY SKY/WX TMP DP RH WIND PRES REMARKS  
CECIL FIELD CLEAR 43 39 87 CALM 30.24R  
HERLONG FIELD NOT AVBL  
FERNANDINA BCH NOT AVBL  
LAKE CITY FAIR 45 37 76 CALM 30.25R  
JUNIPER SPGS NOT AVBL  
BUNNELL NOT AVBL  
KEYSTONE HGTS CLEAR 48 41 76 CALM 30.24R  

 
 
GAZ132>136-149>154-162>166-170100-   
..GEORGIA
 
 
 
CITY SKY/WX TMP DP RH WIND PRES REMARKS  
JESUP FAIR 46 39 76 CALM 30.25R  
HOMERVILLE NOT AVBL  
SWAINSBORO FAIR 45 41 87 CALM 30.24R  
CORDELE NOT AVBL  
EASTMAN FAIR 46 38 76 CALM 30.27R  

 
 
PLEASE NOTE: THESE OBSERVATIONS ARE NOT QUALITY CONTROLLED AND MAY  
NOT BE AVAILABLE AT ALL TIMES.  

 
 
 
CLICK HERE TO GO TO PREVIOUS BULLETINS.

The Nexlab FL Page
The Nexlab GA Page Main Text Page